GFSMA_con_sbcape_336.txt.gz
CAPE
261 35 140 176 74 0 0 0 3 104 350 220 322 128 177 107 0 59 18 189 361 277 159 213 395 572 630 993 1127 1132 1150 1017 1039 1340 1378 1184 1208 1089 818 871 1447 1378 1395
206 87 6 62 14 3 2 14 13 69 156 98 323 140 69 29 0 0 33 137 690 514 447 373 144 227 507 578 677 671 641 798 669 732 1279 1467 1282 1158 937 1040 964 749 1006
368 153 231 162 1 0 6 39 37 94 92 99 57 214 147 98 54 40 71 36 317 919 636 621 517 185 209 543 334 418 539 664 1013 1007 1031 1067 1232 1175 1166 1076 1101 1151 1580
498 538 614 572 362 120 58 36 43 22 12 40 15 17 314 266 362 119 207 168 159 610 784 923 704 479 346 413 484 327 503 1209 1293 1290 1201 1181 1082 1041 1071 1392 1349 1467 1227
47 216 923 658 601 387 311 126 72 20 88 271 116 79 285 245 647 1008 614 604 359 336 310 949 867 688 576 440 434 366 326 374 1560 1459 1421 1254 1081 1045 1049 1391 1320 1203 1645
443 82 983 914 447 298 448 268 190 91 67 279 855 493 288 116 441 250 27 596 551 410 255 397 550 435 640 406 462 383 320 441 1158 1183 1432 1032 1342 1063 1280 1186 1639 1160 1201
258 1116 1229 717 589 604 501 396 233 320 475 260 249 113 0 287 441 371 305 397 576 499 274 324 452 223 532 980 997 1105 650 763 873 855 1092 914 711 684 925 1016 1003 1060 1176
740 1190 1064 706 599 824 828 522 441 346 447 348 79 0 204 351 465 431 317 204 331 569 574 451 444 319 289 424 586 794 870 1006 1004 1010 875 1035 643 255 690 363 799 818 980
1180 1177 885 1065 667 662 870 832 673 260 574 504 322 20 104 140 305 327 340 327 470 452 505 586 498 451 356 271 626 616 955 884 734 730 701 584 741 716 543 516 503 418 419
1580 1574 1417 957 907 662 1012 912 807 975 450 765 806 805 203 190 160 390 334 437 592 499 454 500 440 321 206 201 380 466 622 565 531 476 461 366 336 283 298 334 393 329 320
1177 1481 1290 1111 636 658 1010 1018 1166 996 1060 941 856 1055 882 356 116 99 382 472 232 182 195 327 228 195 142 103 99 223 301 265 184 105 65 38 3 33 89 81 185 310 279
1104 1579 1020 730 558 996 572 964 502 797 668 744 632 256 316 561 551 245 166 129 215 124 98 178 177 55 0 0 10 82 33 0 0 0 0 0 0 0 0 0 0 0 26
1279 1391 1168 1024 608 1003 731 687 417 791 275 717 242 108 2 0 0 12 69 58 78 59 104 37 44 21 0 0 0 0 0 0 0 0 0 0 0 0 0 0 0 0 0
1575 1124 1626 1107 1133 637 1029 663 395 549 454 49 44 5 0 0 0 0 56 101 69 54 29 39 1 0 0 0 0 0 0 0 0 0 0 0 0 0 0 0 0 0 0
1769 1284 1469 1685 1643 915 842 723 717 912 635 104 43 18 2 0 0 0 0 3 49 56 60 17 2 0 0 0 0 0 0 0 0 0 0 0 0 0 0 0 0 0 0
1931 1437 1511 2203 2102 1521 923 1096 1070 931 285 21 21 30 0 0 0 0 0 0 0 3 34 5 0 0 0 0 0 0 0 0 0 0 0 0 0 0 0 0 0 0 0
1931 1725 1673 2295 2343 2009 1553 1440 1558 1443 482 120 159 71 0 0 0 0 0 0 0 0 14 3 0 0 0 0 0 0 0 0 0 0 0 0 0 0 0 0 0 0 0
1299 2304 2123 1936 1842 2372 2057 1784 1754 1911 871 178 62 8 6 0 0 0 0 0 0 0 4 0 0 0 0 0 0 0 0 0 0 0 0 0 0 0 0 0 0 0 0
1719 2159 2376 2366 2152 1997 2485 2285 1822 1913 994 247 139 0 6 0 0 0 0 0 0 0 0 0 0 0 0 0 0 0 0 0 0 0 0 0 0 1 0 0 0 0 0
1774 1472 2119 2716 2673 2595 2400 2676 2525 1984 977 476 417 135 22 0 0 0 0 0 0 0 0 0 0 0 0 0 0 0 0 0 0 0 0 0 0 0 0 0 0 0 0
1609 1695 1668 1864 2443 2703 2937 2843 2861 1709 821 741 628 347 76 2 0 0 0 0 0 0 0 0 0 0 0 0 0 0 0 0 0 0 0 0 0 0 0 3 0 5 0
1794 1763 1832 1831 1889 2534 2842 2794 2551 1407 980 167 140 225 56 2 0 0 0 0 0 0 0 0 0 0 0 0 0 0 0 0 0 0 0 0 0 0 0 0 0 0 0
1887 1819 1822 1990 2021 2025 2255 1673 1212 799 229 107 126 189 0 0 0 0 0 0 0 0 0 0 0 0 0 0 0 0 0 0 0 0 0 0 0 0 0 0 0 0 0
997 1334 1926 2177 1074 0 345 632 344 629 415 211 50 24 0 0 0 0 0 0 0 0 0 0 0 0 0 0 0 0 0 0 0 0 0 0 0 0 0 0 3 9 0
20 299 73 0 0 0 86 114 277 490 457 418 35 35 0 0 0 0 0 0 0 0 0 0 0 0 0 0 0 0 0 0 0 0 0 0 0 2 4 2 0 1 0
31 0 0 0 0 0 1 2 9 2 0 6 0 0 1 0 0 0 0 0 0 0 0 0 0 0 0 0 0 0 0 0 0 0 0 0 0 0 0 0 0 0 0

GFSMA_con_sbcape_339.txt.gz
CAPE
170 85 118 197 145 10 0 0 0 13 112 232 115 76 236 176 76 53 0 162 222 282 482 830 809 769 862 1062 1048 1047 1197 1259 1408 1282 1225 1040 1007 1231 1407 1485 1477 1439 1390
94 0 82 149 46 9 0 0 3 6 136 175 166 142 185 108 5 23 32 0 423 430 475 509 720 722 750 1041 1078 1148 1065 931 903 1150 1319 1194 1282 1118 948 840 1334 1219 1285
80 121 12 1 0 0 0 12 17 14 85 101 132 126 111 73 87 48 25 1 260 733 422 565 447 459 648 756 857 779 738 923 778 744 1051 1205 1283 1222 930 995 1035 864 751
255 265 201 269 120 9 0 1 4 28 7 9 9 21 216 222 190 89 135 53 99 470 680 603 619 392 442 702 628 624 751 1001 1332 1110 1007 1056 1226 1215 1173 1173 1156 1189 1231
499 337 579 602 282 99 79 18 0 0 12 46 128 1 109 247 377 421 208 226 105 384 370 843 881 714 523 521 720 531 625 943 1361 1213 1496 1248 1159 1304 1291 1412 1264 1352 1365
13 33 761 767 343 206 260 65 37 4 57 199 577 451 265 112 229 452 354 297 477 413 301 278 591 677 818 677 747 655 497 507 746 1322 1694 1644 1646 1557 1393 1371 1533 1491 1227
13 657 786 437 357 347 299 170 187 239 301 179 259 88 0 80 357 336 26 104 498 261 285 290 363 266 553 977 919 794 535 503 581 1100 1376 1324 1099 1172 888 1332 1241 1473 1302
530 908 787 526 482 620 465 393 365 330 306 269 138 0 283 388 379 399 314 179 298 588 475 363 397 240 241 393 478 1067 1178 1120 843 800 958 854 992 904 510 667 793 986 1038
748 1219 649 457 471 605 549 350 304 253 431 369 145 15 138 344 256 275 370 249 293 344 477 564 401 364 202 185 471 641 752 565 626 609 661 621 342 562 400 446 377 473 528
1153 995 682 856 497 428 627 690 624 418 303 492 543 414 65 63 227 345 306 343 402 432 335 382 438 393 255 169 306 525 762 740 613 503 446 418 343 313 270 256 345 340 430
1125 1274 1132 594 559 518 720 692 705 775 610 635 711 679 644 133 3 155 371 383 299 195 173 287 281 212 148 112 150 341 539 498 296 198 179 127 114 129 148 157 151 226 355
901 1319 1026 837 384 517 756 738 682 684 574 462 419 83 375 607 354 75 147 128 233 176 107 171 155 105 80 58 117 284 302 162 109 25 0 0 0 0 0 0 0 0 0
985 1089 940 553 341 760 561 369 464 524 235 557 172 55 15 5 5 60 85 80 150 69 66 83 79 38 7 0 3 113 56 5 0 0 0 0 0 0 0 0 0 0 0
1350 1034 1217 694 657 419 767 549 314 475 237 96 88 63 11 0 0 1 85 89 88 41 29 50 9 0 0 0 0 25 0 0 0 0 0 0 0 0 0 0 0 0 0
1558 1269 1105 1253 933 656 682 600 429 349 464 143 19 4 2 0 0 0 0 11 42 67 68 71 70 0 0 0 0 0 0 0 0 0 0 0 0 0 0 0 0 0 0
1460 1681 1129 1439 1433 1396 584 618 484 441 478 129 31 3 3 0 0 0 0 0 0 31 89 19 2 0 0 0 0 0 0 0 0 0 0 0 0 0 0 0 0 0 0
1106 1449 1205 1396 1754 1838 1292 716 742 870 476 141 0 17 0 0 0 0 0 0 0 0 0 20 0 0 0 0 0 0 0 0 0 0 0 0 0 0 0 0 0 0 0
962 1538 1428 1364 1791 2018 1664 1262 1076 1423 1076 710 7 19 38 56 0 0 0 0 0 0 0 0 0 0 0 0 0 0 0 0 0 0 0 0 0 0 0 0 0 0 0
1602 1212 1800 1571 1565 1782 2118 1641 1423 1084 1368 740 22 30 146 109 0 0 0 0 0 0 0 0 0 0 0 0 0 0 0 0 0 0 0 0 0 0 0 0 0 0 0
1518 1573 1794 1976 1990 1785 1613 1905 1926 1349 1014 458 118 149 77 8 14 0 0 0 0 0 0 0 0 0 0 0 0 0 0 0 0 0 0 0 0 0 3 0 0 0 0
1378 1345 1383 1786 2218 2353 2335 2074 2157 1935 1246 683 326 63 19 0 16 0 0 0 0 0 0 0 0 0 0 0 0 0 0 0 0 0 0 0 0 0 0 0 2 6 0
1634 1361 1317 1333 1370 1927 2360 2400 2340 1681 930 567 422 126 79 191 0 0 0 0 0 0 0 0 0 0 0 0 0 0 0 0 0 0 0 0 0 0 0 0 0 0 0
1423 1420 1352 1476 1534 1372 1779 1630 1641 1193 393 147 146 94 79 25 3 0 0 0 0 0 0 0 0 0 0 0 0 0 0 0 0 0 0 0 0 0 0 0 0 0 0
919 1254 1433 1341 1325 1132 1066 1640 809 599 119 13 4 2 1 1 0 0 0 0 0 0 0 0 0 0 0 0 0 0 0 0 0 0 0 0 0 0 0 0 1 6 5
80 128 369 641 723 435 22 314 255 361 226 0 0 0 8 0 0 0 0 0 0 0 0 0 0 0 0 0 0 0 0 0 0 0 0 0 0 0 0 1 0 2 3
0 0 0 0 0 2 1 1 1 90 211 245 89 27 32 2 0 0 0 0 0 0 0 0 0 0 0 0 0 0 0 0 0 0 0 0 0 0 0 0 0 0 0

GFSMA_con_sbcape_342.txt.gz
CAPE
243 105 133 335 180 105 9 0 5 27 84 334 162 150 268 279 149 182 67 156 31 368 590 758 904 954 1031 1153 1188 1226 1105 1089 1155 1072 1043 1161 1252 1400 1392 1485 1451 1490 1485
251 61 42 194 97 96 8 2 2 18 131 307 373 272 237 200 149 141 47 10 298 290 451 720 757 829 854 1018 1034 1005 1192 1193 1234 1237 1374 1336 1115 1139 1188 1313 1508 1365 1380
157 188 70 38 1 0 0 4 15 38 104 181 196 264 293 212 117 60 108 116 44 501 606 577 500 718 802 1024 1064 1088 1123 950 911 1089 1069 1245 1359 1167 1104 902 1152 1149 1330
265 254 158 92 51 72 1 1 14 85 81 105 53 165 337 348 236 258 249 199 139 357 709 562 627 465 636 816 915 897 749 998 1119 1094 1097 1263 1209 1298 1141 1205 1202 1454 1271
654 471 483 626 343 162 103 58 24 62 79 97 187 101 191 503 511 559 298 272 226 347 502 814 622 678 571 569 738 743 785 1022 1254 1177 1276 1207 1425 1417 1349 1432 1655 1564 1605
69 118 367 784 355 305 226 59 73 63 113 197 657 529 446 398 416 887 675 577 499 427 552 708 895 898 791 691 782 781 662 733 834 977 1250 1380 1527 1276 1368 1396 1508 1569 1430
385 27 716 507 312 434 338 133 127 221 255 233 388 226 168 362 471 592 254 217 354 693 439 589 735 711 737 640 759 886 721 584 550 679 1072 1300 844 493 696 770 599 939 1295
418 867 831 471 455 465 362 332 347 355 342 283 254 44 419 552 566 663 570 360 384 699 536 573 633 623 571 709 683 745 909 713 620 636 1231 1314 1087 1074 796 414 377 574 466
566 1151 686 467 484 661 664 500 386 434 587 418 81 120 373 469 283 397 489 368 392 561 768 741 600 638 501 504 637 677 627 502 504 412 446 647 710 744 764 559 474 447 481
1217 1345 859 558 429 562 665 813 554 434 513 652 536 330 57 190 588 536 428 515 456 623 607 704 774 698 619 495 426 597 774 834 629 556 461 392 399 341 326 363 329 296 417
1158 1279 1091 891 612 621 774 897 817 925 723 798 906 849 708 223 86 326 692 601 533 533 620 621 675 679 520 430 407 479 593 423 510 431 332 262 210 214 189 145 96 6 94
1079 1293 1212 920 461 638 858 925 997 949 885 648 618 327 698 703 371 212 250 386 522 498 294 380 441 232 398 340 364 430 486 310 216 108 14 0 0 0 0 0 0 0 0
968 996 1210 989 432 612 833 660 703 741 561 656 464 258 85 57 53 190 250 291 369 231 171 82 311 168 107 48 234 405 291 94 11 0 0 0 0 0 0 0 0 0 0
1130 1067 1233 871 623 636 858 441 546 497 406 341 333 114 66 2 0 14 162 198 348 224 192 190 8 166 115 8 14 206 25 0 0 0 0 0 0 0 0 0 0 0 0
1437 1305 1214 1119 953 634 767 798 530 445 524 164 0 0 0 0 0 0 0 22 384 296 295 167 136 2 4 20 2 0 0 0 0 0 0 0 0 0 0 0 0 0 0
1463 1729 1405 1353 1059 1170 734 864 664 627 583 360 70 0 0 0 0 0 0 0 5 115 148 68 79 1 5 2 2 0 0 0 0 0 0 0 0 0 0 0 0 0 0
1233 1454 1578 1307 1440 1546 1374 827 866 784 693 375 25 21 0 0 0 0 0 0 0 0 3 56 0 0 3 0 0 0 0 0 0 0 0 0 0 0 0 0 0 0 0
962 1035 1356 1299 1491 1655 1767 1337 1050 1118 1009 342 205 74 0 42 0 0 0 0 0 0 0 0 0 0 0 0 0 0 0 0 0 0 0 0 0 0 0 0 0 0 0
996 938 1230 1458 1440 1706 1933 1742 1437 1043 1344 985 280 66 105 37 33 0 0 0 0 0 0 0 0 0 0 0 0 0 0 0 0 0 0 0 0 0 0 0 0 0 0
1312 1368 1407 1487 1607 1526 1711 2086 1963 1458 992 1178 436 126 153 176 51 12 0 0 0 0 0 0 0 0 0 0 0 0 0 0 0 0 0 0 0 0 0 0 0 0 0
1486 1377 1392 1542 1862 1984 1907 1782 1910 1836 1707 972 653 335 201 115 41 58 0 0 0 0 0 0 0 0 0 0 0 0 0 0 0 0 0 0 0 0 0 0 0 4 0
1824 1388 1212 1305 1339 1730 1988 1985 1827 1839 1693 1431 726 428 235 83 52 4 0 0 0 0 0 0 0 0 0 0 0 0 0 0 0 0 0 0 0 0 0 0 0 0 0
1201 928 945 1023 1226 1249 1139 1096 1290 2248 2177 1348 927 651 433 282 110 74 1 0 0 0 0 0 0 0 0 0 0 0 0 0 0 0 0 0 0 0 0 0 0 0 0
629 589 426 270 1220 1222 989 346 282 1250 1599 1111 758 355 115 123 59 26 1 0 0 0 0 0 0 0 0 0 0 0 0 0 0 0 0 0 0 0 0 0 0 2 1
68 71 180 150 91 102 1 0 0 600 915 369 140 90 53 9 0 0 0 0 0 0 0 0 0 0 0 0 0 0 0 0 0 0 0 0 0 0 0 0 0 0 0
0 0 0 0 0 0 1 1 0 209 558 96 0 14 0 5 0 0 0 0 0 0 0 0 0 0 0 0 0 0 0 0 0 0 0 0 0 0 0 0 0 0 0

GFSMA_con_sbcape_345.txt.gz
CAPE
1523 1532 1566 1025 882 413 470 375 307 578 432 579 900 493 355 237 544 633 391 167 142 149 305 852 1108 1048 1068 1236 641 1131 978 876 1106 1329 1321 1189 1380 1460 1462 1438 1477 1508 1506
1529 1400 1189 1054 920 757 703 209 141 275 523 758 1175 1006 993 793 778 697 415 196 134 96 184 445 778 994 1066 1104 1231 1224 1097 1046 1092 1098 1152 1153 1299 1422 1368 1454 1431 1367 1353
1588 1499 1318 1144 1054 880 845 422 340 787 958 1164 1023 919 839 961 815 821 714 480 142 340 264 284 429 728 896 996 1056 1027 1218 1150 1092 1165 1271 1275 1097 1088 1077 1022 1409 1307 1343
1589 1524 1610 1376 1019 1020 808 713 720 810 1184 1002 786 942 1056 964 795 710 691 818 551 331 576 354 255 374 652 883 944 956 990 1024 949 943 960 1052 1249 1288 1165 1131 1054 1148 1028
1732 1580 1695 1559 1773 1233 925 759 742 903 1015 649 536 565 568 1260 1239 1017 1190 962 729 462 624 703 510 424 434 673 916 861 876 981 1214 1108 1146 995 1243 1120 856 743 933 1187 1182
1353 1204 1031 2127 1501 1358 959 882 1015 925 815 956 725 836 1037 1324 1242 1256 1217 910 904 853 972 1132 1057 788 695 659 800 930 915 899 903 873 1138 1201 1111 1119 1104 1112 649 735 1020
1725 1415 1671 1938 1481 1497 1093 1065 939 1084 841 1045 905 1115 1114 1315 1244 1191 1341 927 970 782 1319 1111 1059 877 700 596 619 771 789 743 707 784 915 1378 1563 994 510 472 385 105 74
1728 1973 2305 1961 1627 1568 1555 1255 1132 940 974 1123 1162 1040 1090 1297 1465 1504 1444 1237 478 1172 1314 1144 896 1073 870 969 827 564 926 962 762 707 1091 1448 1434 1192 917 465 423 433 459
1838 2535 2521 2105 1898 1821 1704 1710 1586 1459 1240 1319 1020 723 1015 924 1171 1300 1391 1021 1040 1261 1392 1310 1201 1195 1136 886 688 546 710 671 592 658 751 782 791 739 902 770 557 465 452
2064 2460 2684 2061 1912 1847 1931 1791 1644 1479 1702 1444 1324 1146 955 1162 1053 887 1285 1189 968 1082 1176 1359 1240 1230 1179 1139 658 523 629 639 462 437 515 486 483 415 384 387 412 364 384
2359 2583 2807 2434 2134 1758 1987 2211 2111 1914 1647 1412 1429 1730 1818 1524 1242 1006 1258 1535 1385 1451 1325 1428 1241 1166 1163 997 875 660 615 545 569 649 515 415 326 295 219 152 84 0 0
2351 2756 2766 2675 2169 1742 2062 2045 2185 2025 2102 2074 1818 1353 1527 1714 1453 1091 955 1385 1384 1625 1516 1426 1213 1362 904 904 663 654 558 416 389 221 70 9 0 0 0 0 0 0 0
2090 2452 2894 2771 2253 2045 2002 1983 2335 2247 2191 1813 1810 1139 701 648 1023 1009 888 934 723 1047 1195 1061 1158 964 1069 1161 618 708 401 211 42 0 0 0 0 0 0 0 0 0 0
2052 2228 2612 2719 2514 2130 1865 2088 1806 1719 1648 1538 1651 1376 966 492 191 340 458 460 382 485 772 741 444 595 668 788 629 492 180 3 0 0 0 0 0 0 0 0 0 0 0
2100 2503 2552 2785 2577 2187 1973 2184 1680 1804 1698 1624 1340 989 825 672 299 7 11 161 146 62 97 446 739 127 149 222 445 289 1 0 0 0 0 0 0 0 0 0 0 0 0
2553 2731 2771 2721 2729 2501 2212 2039 1838 1975 1804 1593 1145 1247 911 307 46 1 0 12 213 131 39 57 288 115 52 138 188 142 0 0 0 0 0 0 0 0 0 0 0 0 0
2592 2757 3076 2741 2968 2796 2687 2377 2179 2143 2110 1946 1516 1370 1152 577 90 17 0 0 0 0 1 102 71 3 41 98 126 36 0 0 0 0 0 0 0 0 0 0 0 0 0
2436 2771 2779 2859 2928 2776 2858 2855 2474 2151 2308 2151 1898 1367 1112 516 618 421 35 0 0 0 0 0 0 1 95 75 102 2 0 0 0 0 0 0 0 0 0 0 0 0 0
2249 2192 2435 2660 2781 2651 2808 2987 2909 3087 2706 2401 2250 1773 1439 1054 1011 487 174 4 0 0 0 0 0 0 1 50 20 59 0 0 0 0 0 0 0 0 0 0 0 0 0
2663 2715 2687 2722 2720 2656 2633 2777 2971 2901 3099 2727 2668 2210 1773 1397 1259 1118 551 91 0 0 0 0 0 0 0 8 9 8 0 0 0 0 0 0 0 0 0 0 0 0 0
2902 3005 2926 2871 2771 2755 2583 2725 2965 3062 3242 3166 2780 2668 2147 1566 936 777 675 318 0 6 0 0 0 0 16 25 37 0 1 0 0 0 0 0 0 0 10 0 0 12 0
2265 2519 2443 2492 2190 2075 1821 1704 1838 2876 3223 3285 3261 2804 2515 832 348 85 31 88 37 8 3 0 0 11 110 132 67 2 0 0 0 0 0 0 0 0 0 11 0 0 0
1463 2214 1962 1851 1740 1676 1401 1228 383 1703 3044 3218 3373 3236 2522 1832 399 377 63 2 0 0 0 0 1 46 215 159 72 26 9 0 0 0 0 0 0 0 0 2 0 0 0
1361 1756 1993 1255 433 484 505 43 4 527 1809 2916 3267 3112 2722 1985 940 657 549 258 5 0 0 0 0 14 243 209 134 129 71 3 0 0 0 0 0 0 8 18 0 0 0
744 917 1230 1250 1001 752 27 0 0 305 994 1700 1994 1641 1479 1481 686 112 161 14 0 0 0 0 0 0 0 0 23 0 0 0 0 0 0 0 0 2 17 35 30 0 0
364 241 245 341 333 351 21 1 0 375 791 1241 308 322 212 394 1 2 87 210 302 6 0 0 0 0 0 0 0 0 0 0 0 0 0 0 0 0 3 2 38 58 48